Location: Atlantic Beach
(40.5890°N, 73.7290°W)
Time: 00:18:12
(UTC+00:00)

Envisat - Pass Details

Date: 30 January 2021
Orbit: 764 x 766 km, 98.1° (Epoch: 03 March)

Event Time Altitude Azimuth Distance (km) Brightness Sun altitude
Rises 09:50:20 0° 24° (NNE) 3,239 6.5 -25.9°
Reaches altitude 10° 09:52:58 10° 36° (NE) 2,308 5.9 -25.4°
Maximum altitude 09:57:20 28° 95° (E) 1,397 5.0 -24.6°
Drops below altitude 10° 10:01:39 10° 154° (SSE) 2,293 5.8 -23.8°
Sets 10:04:14 0° 166° (SSE) 3,214 6.4 -23.3°
